Weather History for Reno - Stead, NV

Change the Weather History Date:

Monday, November 4, 2013

  Actual Average (KRNO) Record (KRNO)
Temperature  
Mean Temperature 34 °F 47 °F  
Max Temperature 44 °F 60 °F 76 °F (1945)
Min Temperature 23 °F 33 °F 7 °F (1935)
Degree Days  
Heating Degree Days 32 18  
Month to date heating degree days 70  
Since 1 July heating degree days 506  
Cooling Degree Days 0 0  
Month to date cooling degree days 0  
Year to date cooling degree days 839  
Moisture  
Dew Point 16 °F    
Average Humidity 52    
Maximum Humidity 74    
Minimum Humidity 25    
Precipitation  
Precipitation 0.00 in 0.03 in 0.61 in (1906)
Month to date precipitation 0.09  
Year to date precipitation 5.64  
Snow  
Snow 0.00 in 0.00 in 3.00 in (1947)
Month to date snowfall 0.2  
Since 1 July snowfall 0.6  
Since 1 September snowfall 0.6  
Snow Depth -    
Sea Level Pressure  
Sea Level Pressure 30.07 in    
Wind  
Wind Speed 3 mph (NE)    
Max Wind Speed 10 mph    
Max Gust Speed -    
Visibility 10 miles    
Events Rain    
T = Trace of Precipitation, MM = Missing Value Source: NWS Daily Summary

Daily Weather History Graph

Daily Weather History Graph

Search for Another Location

Airport:

Trip Planner

Search our weather history database for the weather conditions in past years. The results will help you decide how hot, cold, wet, or windy it might be!

Date:

Astronomy

Nov. 04, 2013 Rise Set
Actual Time 6:31 AM PST 4:53 PM PST
Civil Twilight 6:03 AM PST 5:22 PM PST
Nautical Twilight 5:31 AM PST 5:53 PM PST
Astronomical Twilight 5:00 AM PST 6:25 PM PST
Moon 7:47 AM PST (11/4) 6:03 PM PST (11/4)
Length of Visible Light 11h 18m
Length of Day
10h 22m
New Moon, 2% of the Moon is Illuminated
Nov 4
New Moon
Nov 9
First Quarter
Nov 17
Full
Nov 25
Last Quarter
Dec 2
New

Hourly Weather History & Observations

Time (PST) Temp. Windchill Dew Point Humidity Pressure Visibility Wind Dir Wind Speed Gust Speed Precip Events Conditions
12:15 AM 32.0 °F - 17.6 °F 55% 29.99 in 10.0 mi Calm Calm - N/A   Mostly Cloudy
12:35 AM 30.2 °F - 17.6 °F 60% 29.99 in 10.0 mi Calm Calm - N/A   Mostly Cloudy
12:55 AM 28.4 °F 24.6 °F 17.6 °F 64% 29.99 in 10.0 mi NNW 3.5 mph - N/A   Mostly Cloudy
1:15 AM 28.4 °F 24.6 °F 15.8 °F 59% 29.99 in 10.0 mi North 3.5 mph - N/A   Clear
1:35 AM 28.4 °F 23.3 °F 15.8 °F 59% 29.99 in 10.0 mi North 4.6 mph - N/A   Scattered Clouds
1:55 AM 26.6 °F - 15.8 °F 64% 29.99 in 10.0 mi Calm Calm - N/A   Overcast
2:15 AM 28.4 °F 23.3 °F 15.8 °F 59% 29.98 in 10.0 mi North 4.6 mph - N/A   Overcast
2:35 AM 28.4 °F - 17.6 °F 64% 29.98 in 10.0 mi Calm Calm - N/A   Overcast
2:55 AM 26.6 °F - 15.8 °F 64% 29.98 in 10.0 mi Calm Calm - N/A   Overcast
3:15 AM 26.6 °F 22.6 °F 15.8 °F 64% 29.98 in 10.0 mi WSW 3.5 mph - N/A   Overcast
3:35 AM 28.4 °F - 15.8 °F 59% 29.98 in 10.0 mi Calm Calm - N/A   Overcast
3:55 AM 26.6 °F - 15.8 °F 64% 29.98 in 10.0 mi Calm Calm - N/A   Overcast
4:15 AM 26.6 °F - 15.8 °F 64% 29.99 in 10.0 mi Calm Calm - N/A   Overcast
4:35 AM 28.4 °F - 17.6 °F 64% 30.00 in 10.0 mi Calm Calm - N/A   Overcast
4:50 AM 28.4 °F - 17.6 °F 64% 30.00 in 10.0 mi Calm Calm - N/A   Overcast
5:15 AM 30.2 °F - 17.6 °F 60% 30.00 in 10.0 mi Calm Calm - N/A   Overcast
5:35 AM 28.4 °F 22.2 °F 17.6 °F 64% 30.01 in 10.0 mi West 5.8 mph - N/A   Mostly Cloudy
5:55 AM 26.6 °F - 17.6 °F 69% 30.02 in 10.0 mi Calm Calm - N/A   Partly Cloudy
6:15 AM 26.6 °F - 17.6 °F 69% 30.03 in 10.0 mi Calm Calm - N/A   Clear
6:35 AM 24.8 °F 19.1 °F 15.8 °F 69% 30.04 in 10.0 mi North 4.6 mph - N/A   Clear
6:55 AM 23.0 °F 18.4 °F 15.8 °F 74% 30.04 in 10.0 mi West 3.5 mph - N/A   Clear
7:15 AM 24.8 °F - 17.6 °F 74% 30.05 in 10.0 mi Calm Calm - N/A   Clear
7:35 AM 28.4 °F 24.6 °F 19.4 °F 69% 30.05 in 10.0 mi North 3.5 mph - N/A   Clear
7:55 AM 32.0 °F 28.7 °F 19.4 °F 60% 30.06 in 10.0 mi NNE 3.5 mph - N/A   Clear
8:15 AM 32.0 °F 28.7 °F 19.4 °F 60% 30.07 in 10.0 mi NNW 3.5 mph - N/A   Clear
8:35 AM 35.6 °F - 19.4 °F 52% 30.08 in 10.0 mi Calm Calm - N/A   Clear
8:55 AM 35.6 °F - 19.4 °F 52% 30.09 in 10.0 mi Calm Calm - N/A   Clear
9:15 AM 37.4 °F 34.9 °F 19.4 °F 48% 30.10 in 10.0 mi ENE 3.5 mph - N/A   Clear
9:35 AM 37.4 °F 31.4 °F 19.4 °F 48% 30.09 in 10.0 mi East 8.1 mph - N/A   Clear
9:55 AM 37.4 °F 33.8 °F 19.4 °F 48% 30.09 in 10.0 mi ESE 4.6 mph - N/A   Clear
10:15 AM 39.2 °F 35.0 °F 17.6 °F 42% 30.09 in 10.0 mi ENE 5.8 mph - N/A   Clear
10:35 AM 39.2 °F 33.6 °F 17.6 °F 42% 30.09 in 10.0 mi East 8.1 mph - N/A   Clear
10:55 AM 39.2 °F 32.5 °F 17.6 °F 42% 30.08 in 10.0 mi East 10.4 mph - N/A   Clear
11:15 AM 39.2 °F 35.9 °F 17.6 °F 42% 30.08 in 10.0 mi ENE 4.6 mph - N/A   Clear
11:35 AM 39.2 °F 34.2 °F 17.6 °F 42% 30.08 in 10.0 mi East 6.9 mph - N/A   Partly Cloudy
11:55 AM 41.0 °F 39.0 °F 17.6 °F 39% 30.07 in 10.0 mi ENE 3.5 mph - N/A   Clear
12:15 PM 41.0 °F 38.0 °F 17.6 °F 39% 30.06 in 10.0 mi East 4.6 mph - N/A   Clear
12:35 PM 42.8 °F 39.3 °F 17.6 °F 36% 30.06 in 10.0 mi East 5.8 mph - N/A   Clear
12:55 PM 42.8 °F 39.3 °F 17.6 °F 36% 30.05 in 10.0 mi ENE 5.8 mph - N/A   Clear
1:15 PM 42.8 °F - 17.6 °F 36% 30.05 in 10.0 mi Calm Calm - N/A   Clear
1:35 PM 44.6 °F 39.7 °F 17.6 °F 34% 30.05 in 10.0 mi ENE 9.2 mph - N/A   Clear
1:55 PM 42.8 °F 40.1 °F 15.8 °F 34% 30.05 in 10.0 mi East 4.6 mph - N/A   Clear
2:15 PM 42.8 °F 39.3 °F 14.0 °F 31% 30.04 in 10.0 mi SE 5.8 mph - N/A   Clear
2:35 PM 44.6 °F 41.4 °F 14.0 °F 29% 30.05 in 10.0 mi ESE 5.8 mph - N/A   Clear
2:55 PM 44.6 °F 40.2 °F 14.0 °F 29% 30.05 in 10.0 mi East 8.1 mph - N/A   Clear
3:15 PM 44.6 °F 41.4 °F 10.4 °F 25% 30.05 in 10.0 mi ENE 5.8 mph - N/A   Clear
3:35 PM 44.6 °F 39.7 °F 10.4 °F 25% 30.06 in 10.0 mi ENE 9.2 mph - N/A   Clear
3:55 PM 42.8 °F 37.5 °F 12.2 °F 29% 30.07 in 10.0 mi ENE 9.2 mph - N/A   Clear
4:15 PM 41.0 °F 35.2 °F 14.0 °F 33% 30.07 in 10.0 mi ENE 9.2 mph - N/A   Clear
4:35 PM 41.0 °F 35.2 °F 14.0 °F 33% 30.07 in 10.0 mi NE 9.2 mph - N/A   Clear
4:55 PM 39.2 °F 33.0 °F 14.0 °F 36% 30.08 in 10.0 mi ENE 9.2 mph - N/A   Clear
5:15 PM 37.4 °F 32.1 °F 14.0 °F 38% 30.09 in 10.0 mi East 6.9 mph - N/A   Clear
5:35 PM 37.4 °F 33.8 °F 14.0 °F 38% 30.09 in 10.0 mi ENE 4.6 mph - N/A Rain Light Rain
5:55 PM 37.4 °F - 14.0 °F 38% 30.10 in 10.0 mi Calm Calm - N/A   Clear
6:15 PM 33.8 °F - 14.0 °F 44% 30.10 in 10.0 mi Calm Calm - N/A   Clear
6:35 PM 32.0 °F 27.5 °F 14.0 °F 48% 30.10 in 10.0 mi NW 4.6 mph - N/A   Clear
6:55 PM 32.0 °F 27.5 °F 14.0 °F 48% 30.11 in 10.0 mi North 4.6 mph - N/A   Clear
7:15 PM 30.2 °F 26.7 °F 14.0 °F 51% 30.12 in 10.0 mi North 3.5 mph - N/A   Clear
7:35 PM 30.2 °F 24.3 °F 14.0 °F 51% 30.13 in 10.0 mi North 5.8 mph - N/A   Clear
7:55 PM 30.2 °F - 14.0 °F 51% 30.14 in 10.0 mi Calm Calm - N/A   Clear
8:15 PM 32.0 °F - 14.0 °F 48% 30.15 in 10.0 mi Calm Calm - N/A   Clear
8:35 PM 28.4 °F - 14.0 °F 55% 30.16 in 10.0 mi Calm Calm - N/A   Clear
8:55 PM 28.4 °F - 14.0 °F 55% 30.16 in 10.0 mi Calm Calm - N/A   Clear
9:15 PM 28.4 °F 24.6 °F 14.0 °F 55% 30.16 in 10.0 mi ENE 3.5 mph - N/A   Clear
9:35 PM 24.8 °F - 14.0 °F 64% 30.17 in 10.0 mi Calm Calm - N/A   Clear
9:55 PM 24.8 °F 20.5 °F 12.2 °F 59% 30.17 in 10.0 mi WNW 3.5 mph - N/A   Clear
10:15 PM 23.0 °F 18.4 °F 14.0 °F 68% 30.17 in 10.0 mi NNW 3.5 mph - N/A   Clear
10:35 PM 23.0 °F 18.4 °F 14.0 °F 68% 30.18 in 10.0 mi North 3.5 mph - N/A   Clear
10:55 PM 24.8 °F - 14.0 °F 64% 30.18 in 10.0 mi Calm Calm - N/A   Clear
11:15 PM 24.8 °F 19.1 °F 14.0 °F 64% 30.19 in 10.0 mi North 4.6 mph - N/A   Clear
11:35 PM 23.0 °F 17.0 °F 14.0 °F 68% 30.19 in 10.0 mi North 4.6 mph - N/A   Clear
11:55 PM 24.8 °F - 14.0 °F 64% 30.19 in 10.0 mi Calm Calm - N/A   Clear